Regional Weather Roundup
Issued by NWS Spokane, WA

Home | Current Version | Previous Version | Text Only | Print | Product List | Glossary On
Versions: 1 2 3 4 5 6 7 8 9 10 11 12 13 14 15 16 17 18 19 20 21 22 23 24 25 26 27 28 29 30 31 32 33 34 35 36 37 38 39 40 41 42 43 44 45 46 47 48 49 50
183
NZUS01 KOTX 201810
RWROTX

Eastern Washington/Northern Idaho Roundup
National Weather Service, Spokane WA
1100 AM PDT SUN MAY 20 2018

Note: "fair" indicated few or no clouds below 12,000 feet with no
significant weather and/or obstructions to visibility.

...Northeast Washington and Northern Idaho Panhandle...

CITY           SKY/WX    TMP DP  RH WIND       PRES   REMARKS
Spokane Intl   PTSUNNY   64  47  53 CALM      29.95R
Spokane Downto CLOUDY    67  48  50 W6        29.94S
Coeur d Alene  MOSUNNY   68  47  46 VRB3      29.94F
Deer Park      MOSUNNY   67  48  50 NW3       29.94S
Sandpoint      SUNNY     64  46  52 E3        29.94S
Bonners Ferry  FAIR      63  48  59 W3        29.93F

...Southeast Washington and southern Idaho Panhandle...

CITY           SKY/WX    TMP DP  RH WIND       PRES   REMARKS
Walla Walla    LGT RAIN  61  57  87 S5        29.94S
Pullman/Moscow MOSUNNY   64  54  69 W8        29.95S
Lewiston       CLOUDY    66  56  70 S3        29.92S
Lowell           N/A     70  50  49 CALM      29.89F
Grangeville    FAIR      59  52  77 W3        29.97R

...Columbia Basin...

CITY           SKY/WX    TMP DP  RH WIND       PRES   REMARKS
Ephrata        SUNNY     72  49  44 N5        29.91F
Moses Lake     CLOUDY    68  50  52 CALM      29.92S
Pasco          CLOUDY    70  51  51 CALM      29.92S
Richland       CLOUDY    71  52  50 S3        29.91S
Hermiston      MOSUNNY   71  55  56 CALM      29.92S
Pendleton      CLOUDY    63  54  72 S5        29.94S

...East Slopes Cascades...

CITY           SKY/WX    TMP DP  RH WIND       PRES   REMARKS
The Dalles     PTSUNNY   70  47  43 NW17G28   29.94S
Yakima         MOSUNNY   74  49  41 CALM      29.91F
Ellensburg     SUNNY     69  52  54 W14       29.93F
Wenatchee      PTSUNNY   67  50  54 NW10      29.93F
Winthrop       FAIR      66  48  51 CALM      29.93F
Omak           SUNNY     69  52  54 NE8       29.93F
Sunnyside      CLOUDY    68  49  51 CALM      29.91F

...Southern British Columbia...

CITY           SKY/WX    TMP DP  RH WIND       PRES   REMARKS
Penticton      MOSUNNY   66  48  52 SW3       29.92F
Castlegar      MOSUNNY   64  45  48 S3        29.92F
Cranbrook      MOSUNNY   66  45  45 E8        29.92F
Osoyoos          N/A     66  48  52 S3          N/A
Creston          N/A     64  50  59 SW2         N/A

...Western Montana...

CITY           SKY/WX    TMP DP  RH WIND       PRES   REMARKS
Kalispell      CLEAR     66  47  50 VRB5      29.95F
Libby            N/A     64  46  52 S5        29.92F
Missoula       MOSUNNY   64  47  53 CALM      29.95F

...Neighboring Cities...

CITY           SKY/WX    TMP DP  RH WIND       PRES   REMARKS
Seattle        CLOUDY    57  51  80 S6        30.06S
Portland       PTSUNNY   61  47  59 W8        30.07S
Boise          LGT RAIN  61  55  81 SW5       29.91S
Great Falls    SUNNY     69  46  43 S10       29.97F
Calgary        MOSUNNY   64  43  45 S9        29.82F



USA.gov is the U.S. government's official web portal to all federal, state and local government web resources and services.